www.srh.weather.gov   
NOAA logo - Click to go to the NOAA homepage   NWS logo
Miscellaneous Local Product
Enter Your "City, ST" or zip code   
Current Version              Previous Version:    01  02  03  04  05  06  07  08  09  10  11  12  13  14  15  16  17  18  19  20  21  22  23  24  25  26  27  28  29  30  
   31  32  33  34  35  36  37  38  39  40  41  42  43  44  45  46  47  48  49  50  51  52  53  54  55  56  57  58  59  60  
[Printable]
664
AXUS43 KGID 220502
MISGRI

GID CWA HOURLY WEATHER ROUNDUP
NATIONAL WEATHER SERVICE HASTINGS NE
1100 PM CST SUN DEC 21 2014

NOTE: "FAIR" INDICATES FEW OR NO CLOUDS BELOW 12,000 FEET WITH NO
SIGNIFICANT WEATHER AND/OR OBSTRUCTIONS TO VISIBILITY.

...SOUTH CENTRAL NEBRASKA...

CITY           SKY/WX    TMP DP  RH WIND       PRES   REMARKS
GRAND ISLAND   CLOUDY    41  39  93 S15       29.55F
HASTINGS       CLOUDY    41  38  89 S12       29.54S
KEARNEY        CLOUDY    39  37  93 S14       29.52F WCI  31
ORD            CLOUDY    38  37  97 S6        29.50S WCI  33
YORK           CLOUDY    41  41 100 S15       29.58F
AURORA         CLOUDY    42  42 100 S13       29.56F FOG
LEXINGTON      CLOUDY    39  37  93 S13       29.50R WCI  32
HOLDREGE       CLOUDY    39  38  93 S12       29.52F FOG     WCI  32
HEBRON         CLOUDY    43  40  91 S10       29.61F

...NEBRASKA PANHANDLE...

CITY           SKY/WX    TMP DP  RH WIND       PRES   REMARKS
CHADRON        MOCLDY    39  31  72 W16       29.54R WCI  30
ALLIANCE       MOCLDY    35  30  82 W14       29.54R WCI  26
SCOTTSBLUFF    CLOUDY    38  31  76 W16       29.59R WCI  29
SIDNEY         CLOUDY    37  31  78 NW21      29.58R WCI  26

...WESTERN AND NORTH CENTRAL NEBRASKA...

CITY           SKY/WX    TMP DP  RH WIND       PRES   REMARKS
VALENTINE      CLOUDY    37  31  78 W12       29.46R WCI  29
AINSWORTH      MOCLDY    33  32  94 S6        29.46S WCI  28
ONEILL         CLOUDY    38  38  98 S13       29.49F WCI  30
BROKEN BOW     CLOUDY    37  35  92 S7        29.49S WCI  32
IMPERIAL       CLOUDY    41  30  65 NW12      29.52R
NORTH PLATTE   MOCLDY    27  26  96 NW6       29.50R WCI  20
MCCOOK         MOCLDY    34  32  92 SW6       29.51R FOG     WCI  29

...EASTERN NEBRASKA...

CITY           SKY/WX    TMP DP  RH WIND       PRES   REMARKS
NORFOLK        LGT RAIN  41  39  93 S16       29.56S
SO SIOUX CITY  CLOUDY    42  40  92 SE13      29.61S FOG
TEKAMAH        LGT RAIN  43  41  93 S16       29.63F FOG
COLUMBUS       CLOUDY    43  37  81 S14       29.59F
ALBION         CLOUDY    40  37  90 S14       29.54F FOG     WCI  32
OMAHA EPPLEY   DRIZZLE   43  41  93 S18       29.66F
OFFUTT AFB     CLOUDY    42  41  96 SE13      29.65S FOG
MILLARD        CLOUDY    43  41  93 S13G18    29.65F FOG
LINCOLN        LGT RAIN  43  41  93 S14       29.63F FOG
NEBRASKA CITY  CLOUDY    42  42 100 S16       29.67F FOG
BEATRICE       CLOUDY    43  42  97 S13       29.64S FOG
FALLS CITY     CLOUDY    44  41  89 S14       29.70S FOG

...NORTHERN KANSAS...

CITY           SKY/WX    TMP DP  RH WIND       PRES   REMARKS
GOODLAND       CLOUDY    42  36  79 W18       29.56R
HILL CITY      MOCLDY    42  36  79 W3        29.54S
NORTON         CLOUDY    37  34  87 CALM      29.50F
PHILLIPSBURG   MOCLDY    43  43 100 SE6       29.54F
SMITH CENTER   CLEAR     39  37  93 SE14      29.56F FOG     WCI  31
BELOIT         CLOUDY    43  43 100 SE8       29.59F
HAYS           CLOUDY    43  36  75 S12       29.56F
RUSSELL        CLOUDY    43  42  97 S18       29.55F
CONCORDIA      CLOUDY    43  43 100 S15       29.62F FOG
SALINA         CLOUDY    45  43  93 S13G21    29.63F FOG
TOPEKA         CLOUDY    46  41  82 S9        29.73S



National Weather Service
Disclaimer
Last Modified: August 31, 2005
Privacy Policy